This demonstration page uses our WeatherBlox Daily Observations layout. Learn more.

Left ArrowRight Arrow

Hourly Observations for December 15, 2020

Temp ( °F °C ) Dew Point ( °F °C ) Humidity (%) Winds ( mph kmh ) Pressure ( in mb ) Visibility ( mi km ) Precip ( " mm )
12:15 am 00:15 Clear 23 -5 23 -5 100 100 Calm 30.38 1029 10 16.0934 N/A
12:35 am 00:35 Clear 23 -5 23 -5 100 100 Calm 30.37 1029 10 16.0934 N/A
12:55 am 00:55 Clear 23 -5 23 -5 100 100 Calm N/A 10 16.0934 N/A
1:15 am 01:15 Clear 23 -5 23 -5 100 100 Calm 30.38 1029 10 16.0934 N/A
1:35 am 01:35 Clear 23 -5 23 -5 100 100 Calm 30.38 1029 10 16.0934 N/A
1:55 am 01:55 Clear 23 -5 23 -5 100 100 Calm 30.38 1029 10 16.0934 N/A
2:15 am 02:15 Clear 23 -5 23 -5 100 100 Calm 30.38 1029 10 16.0934 N/A
2:35 am 02:35 Clear 23 -5 23 -5 100 100 Calm 30.38 1029 10 16.0934 N/A
2:55 am 02:55 Clear 23 -5 23 -5 100 100 Calm 30.38 1029 10 16.0934 N/A
3:15 am 03:15 Clear 23 -5 23 -5 100 100 Calm 30.38 1029 10 16.0934 N/A
3:35 am 03:35 Clear 23 -5 23 -5 100 100 Calm 30.38 1029 10 16.0934 N/A
3:55 am 03:55 Clear 21 -6 21 -6 100 100 Calm 30.39 1029 10 16.0934 N/A
4:15 am 04:15 Clear 21 -6 21 -6 100 100 N 6 9 30.39 1029 10 16.0934 N/A
4:35 am 04:35 Clear 21 -6 21 -6 100 100 N 5 7 30.39 1029 10 16.0934 N/A
4:55 am 04:55 Clear 21 -6 21 -6 100 100 NNE 6 9 30.38 1029 10 16.0934 N/A
5:15 am 05:15 Clear 23 -5 23 -5 100 100 NNE 6 9 30.36 1028 10 16.0934 N/A
5:35 am 05:35 Clear 23 -5 23 -5 100 100 NE 5 7 30.36 1028 10 16.0934 N/A
5:55 am 05:55 Clear 23 -5 23 -5 100 100 Calm 30.36 1028 10 16.0934 N/A
6:15 am 06:15 Clear 23 -5 23 -5 100 100 Calm 30.37 1029 10 16.0934 N/A
6:35 am 06:35 Clear 23 -5 23 -5 100 100 Calm 30.37 1029 10 16.0934 N/A
6:55 am 06:55 Clear 21 -6 21 -6 100 100 Calm 30.39 1029 10 16.0934 N/A
7:15 am 07:15 Clear 21 -6 21 -6 100 100 NNE 3 6 30.4 1029 10 16.0934 N/A
7:35 am 07:35 Clear 21 -6 21 -6 100 100 NNE 5 7 30.41 1030 10 16.0934 N/A
7:55 am 07:55 Clear 21 -6 21 -6 100 100 Calm 30.43 1030 10 16.0934 N/A
8:15 am 08:15 Sunny 19 -7 19 -7 100 100 Calm 30.43 1031 10 16.0934 N/A
8:35 am 08:35 Sunny 21 -6 21 -6 100 100 Calm 30.44 1031 10 16.0934 N/A
8:55 am 08:55 Sunny 21 -6 21 -6 100 100 Calm 30.44 1031 10 16.0934 N/A
9:15 am 09:15 Sunny 23 -5 23 -5 100 100 Calm 30.44 1031 10 16.0934 N/A
9:35 am 09:35 Sunny 25 -4 25 -4 100 100 Calm 30.45 1031 10 16.0934 N/A
9:55 am 09:55 Sunny 27 -3 25 -4 93 93 E 6 9 30.44 1031 10 16.0934 N/A
10:15 am 10:15 Sunny 27 -3 25 -4 93 93 E 7 11 30.44 1031 10 16.0934 N/A
10:35 am 10:35 Sunny 28 -2 25 -4 86 86 ENE 10 17 30.43 1031 10 16.0934 N/A
10:55 am 10:55 Sunny 28 -2 25 -4 86 86 E 13 20 30.42 1030 10 16.0934 N/A
11:15 am 11:15 Sunny 28 -2 25 -4 86 86 ENE 14 22 30.41 1030 10 16.0934 N/A
11:35 am 11:35 Sunny 28 -2 25 -4 86 86 ENE 13 20 30.39 1029 10 16.0934 N/A
11:55 am 11:55 Sunny 30 -1 25 -4 80 80 E 13 20 30.39 1029 10 16.0934 N/A
12:15 pm 12:15 Sunny 30 -1 25 -4 80 80 ENE 10 17 30.38 1029 10 16.0934 N/A
12:35 pm 12:35 Sunny 30 -1 23 -5 75 75 E 12 19 30.36 1028 10 16.0934 N/A
12:55 pm 12:55 Sunny 30 -1 25 -4 80 80 ENE 13 20 30.35 1028 10 16.0934 N/A
1:15 pm 13:15 Sunny 30 -1 23 -5 75 75 E 13 20 30.33 1027 10 16.0934 N/A
1:35 pm 13:35 Sunny 32 0 23 -5 69 69 E 10 17 30.32 1027 10 16.0934 N/A
1:55 pm 13:55 Sunny 30 -1 25 -4 80 80 ENE 12 19 30.31 1026 10 16.0934 N/A
2:15 pm 14:15 Sunny 30 -1 25 -4 80 80 ENE 14 22 30.3 1026 10 16.0934 N/A
2:35 pm 14:35 Sunny 30 -1 25 -4 80 80 ENE 9 15 30.29 1026 10 16.0934 N/A
2:55 pm 14:55 Sunny 32 0 23 -5 69 69 ENE 14 22 30.29 1026 10 16.0934 N/A
3:15 pm 15:15 Sunny 30 -1 23 -5 75 75 ENE 13 20 30.28 1025 10 16.0934 N/A
3:35 pm 15:35 Sunny 30 -1 23 -5 75 75 ENE 12 19 30.27 1025 10 16.0934 N/A
3:55 pm 15:55 Sunny 30 -1 23 -5 75 75 NE 12 19 30.27 1025 10 16.0934 N/A
4:15 pm 16:15 Sunny 30 -1 23 -5 75 75 ENE 13 20 30.26 1025 10 16.0934 N/A
4:35 pm 16:35 Sunny 30 -1 23 -5 75 75 NE 9 15 30.25 1024 10 16.0934 N/A
4:55 pm 16:55 Sunny 30 -1 23 -5 75 75 ENE 8 13 30.25 1024 10 16.0934 N/A
5:15 pm 17:15 Sunny 28 -2 25 -4 86 86 NE 9 15 30.24 1024 10 16.0934 N/A
5:35 pm 17:35 Clear 28 -2 25 -4 86 86 NE 10 17 30.22 1023 10 16.0934 N/A
5:55 pm 17:55 Clear 28 -2 25 -4 86 86 NE 9 15 30.22 1023 10 16.0934 N/A
6:15 pm 18:15 Clear 28 -2 25 -4 86 86 NE 9 15 30.21 1023 10 16.0934 N/A
6:35 pm 18:35 Clear 28 -2 25 -4 86 86 NE 10 17 30.21 1023 10 16.0934 N/A
6:55 pm 18:55 Clear 28 -2 25 -4 86 86 NE 9 15 30.22 1023 10 16.0934 N/A
7:15 pm 19:15 Clear 28 -2 25 -4 86 86 ENE 8 13 30.21 1023 10 16.0934 N/A
7:35 pm 19:35 Clear 28 -2 25 -4 86 86 ENE 8 13 30.2 1023 10 16.0934 N/A
7:55 pm 19:55 Clear 28 -2 27 -3 93 93 NE 6 9 30.21 1023 10 16.0934 N/A
8:15 pm 20:15 Clear 27 -3 27 -3 100 100 ENE 6 9 30.22 1023 10 16.0934 N/A
8:35 pm 20:35 Clear 28 -2 27 -3 93 93 E 8 13 30.21 1023 10 16.0934 N/A
8:55 pm 20:55 Clear 28 -2 25 -4 86 86 ENE 8 13 30.19 1022 10 16.0934 N/A
9:15 pm 21:15 Clear 28 -2 25 -4 86 86 ENE 7 11 30.21 1023 10 16.0934 N/A
9:35 pm 21:35 Clear 28 -2 27 -3 93 93 E 5 7 30.2 1023 10 16.0934 N/A
9:55 pm 21:55 Clear 28 -2 27 -3 93 93 ENE 7 11 30.19 1022 10 16.0934 N/A
10:15 pm 22:15 Clear 28 -2 27 -3 93 93 ENE 9 15 30.17 1022 10 16.0934 N/A
10:35 pm 22:35 Clear 28 -2 25 -4 86 86 NE 9 15 30.16 1021 10 16.0934 N/A
10:55 pm 22:55 Clear 28 -2 27 -3 93 93 NE 8 13 30.16 1021 10 16.0934 N/A
11:15 pm 23:15 Partly Cloudy 28 -2 25 -4 86 86 ENE 9 15 30.15 1021 10 16.0934 N/A
11:35 pm 23:35 Cloudy 28 -2 25 -4 86 86 ENE 9 15 30.14 1021 10 16.0934 N/A
11:55 pm 23:55 Cloudy 28 -2 25 -4 86 86 ENE 10 17 30.14 1021 10 16.0934 N/A

Powered by AerisWeather